Torna al catalogo

STARLINK-36606

AttivoComunicazioniVLEO
NORAD 67845·PAYLOAD·🇺🇸 United States

Lanciato Feb 16, 2026 da Vandenberg Space Force Base

Loading…

Prossimi Passaggi (prossime 24 ore)

TLE

AggiornatoSource: CelesTrak SupGP

Epoca: Sep 14, 2026, 22:28 UTC

1 67845C 26033AA  26257.93659722  .00026811  00000+0  97113-3 0  2577
2 67845  43.0000 278.0288 0001286 266.4656 312.0443 15.27563460    13

Traccia STARLINK-36606 in tempo reale con AllMySat

Download on the App Store